Regional Weather Roundup
Issued by NWS Newport/Morehead, NC

Current Version | Previous Version | Text Only | Print | Product List | Glossary Off
Versions: 1 2 3 4 5 6 7 8 9 10 11 12 13 14 15 16 17 18 19 20 21 22 23 24 25 26 27 28 29 30 31 32 33 34 35 36 37 38 39 40 41 42 43 44 45 46 47 48 49 50

000
ASUS42 KMHX 280125
RWRMHX
WEATHER ROUNDUP FOR EASTERN NORTH CAROLINA
NATIONAL WEATHER SERVICE NEWPORT/MOREHEAD CITY NC
900 PM EDT WED MAY 27 2015

NOTE: "FAIR" INDICATES FEW OR NO CLOUDS BELOW 12,000 FEET
WITH NO SIGNIFICANT WEATHER AND/OR OBSTRUCTIONS TO VISIBILITY

NCZ015>017-031-032-045>047-102-103-280200-
NORTH COAST

CITY           SKY/WX    TMP DP  RH WIND       PRES   REMARKS
EDENTON        CLEAR     74  67  78 S9G16     30.23R
ELIZABETH CITY CLEAR     73  65  75 S13G20    30.22R
KITTY HAWK     CLEAR     73  63  70 S7        30.23R
MANTEO         CLEAR     73  64  73 SW14      30.25R

$$

NCZ045>047-081-094-103-104-280200-
CENTRAL COAST

CITY           SKY/WX    TMP DP  RH WIND       PRES   REMARKS
FRISCO         PTCLDY    73  61  65 S12       30.25R
SWANQUARTER      N/A     73 N/A N/A S13G18    30.21S

$$

NCZ095-097-098-100-101-280200-
SOUTHERN COAST

CITY           SKY/WX    TMP DP  RH WIND       PRES   REMARKS
BEAUFORT       PTCLDY    73  63  70 S10       30.24R
CEDAR ISLAND     N/A     72 N/A N/A S6        30.27S
JACKSONVILLE   CLOUDY    74  66  76 S5        30.22S
PINEY ISLAND   CLEAR    N/A N/A N/A S5        30.24R
WILMINGTON     PTCLDY    74  66  76 S6        30.22S


$$

NCZ011>013-027>030-043-044-078>080-089-090>093-098-280200-
COASTAL PLAIN

CITY           SKY/WX    TMP DP  RH WIND       PRES   REMARKS
AHOSKIE        PTCLDY    75  67  75 S7        30.21R
CLINTON        MOCLDY    73  70  89 CALM      30.22R
ELIZABETHTOWN  CLOUDY    74  66  76 S3        30.22S
GOLDSBORO      CLOUDY    76  69  78 CALM      30.19R
GREENVILLE     CLOUDY    77  68  73 S9        30.23R
HAVELOCK       PTCLDY    71  64  78 S3        30.24S
KENANSVILLE    MOCLDY    73  66  79 SE5       30.24R
KINSTON        CLOUDY    75  66  73 S8        30.22R
NEW BERN       CLOUDY    75  65  70 S7        30.24R
RICHLANDS      PTCLDY    72  64  78 S6        30.24R
ROCKY MOUNT    LGT RAIN  72  70  93 S7        30.21R
WASHINGTON     PTCLDY    74  66  77 S3        30.24R
WHITEVILLE     MOCLDY    74  66  76 CALM      30.22S

$$

AMZ130-135-150-152-154-156-158-170-250-252-270-ANZ085-086-088-633-658-670-280200-
MARINE OBSERVATIONS

STATION/POSITION TIME  TEMP    WIND        PRES    WAVE   SWELL
                       AIR SEA DIR/SP/G            HT/PER HT/PER
                 (UTC) (F)     (DEG/KT/KT) (MB)    (FT/S) (FT/S)
CHESAPEAKE LIGHT 0100   68     180/ 24/ 25 1022.8
64 E VA BEACH    0050   67 63  180/ 10/ 12 1023.3    3/ 7   2/ 7
DUCK             0100   73 57  190/ 14/ 20 1022.6
2 E DUCK         0011      60                N/A     2/ 4
OREGON INLET     0100   74 78  190/ 16/ 19 1023.8
13E OREGON INLT  0100      70                N/A     3/ 5
HATTERAS CG      0100   74 76  180/  7/ 12 1023.7
DIAMOND BUOY     0050   74 77  180/ 16/ 17 1024.1    3/ 7   2/ 7
CAPE LOOKOUT     0100   74     180/ 13/ 14 1023.8
BEAUFORT LAB     0100   74 76  190/ 12/ 15 1023.1
27 SE WRIGHTSVLE 0100      76  180/ 10/ 12   N/A
5 SE WRIGHTSVLE  0008   76 77  180/ 12/ 17 1023.4
225 S CAPE HAT   0050   73 74  110/ 10/ 12 1023.8    5/ 8   3/ 8
41 SE CHARLESTON 0050   77 78  130/ 10/ 12 1022.5    3/ 7   2/ 7

$$


USA.gov is the U.S. government's official web portal to all federal, state and local government web resources and services.